Location: Unspecified
(0.0000°N, 0.0000°E)
Time: 02:31:58
(UTC+00:00)

Hubble Space Telescope - Visible Passes

Search period start: 12 December 2018 00:00
Search period end: 22 December 2018 00:00
Orbit: 537 x 540 km, 28.5° (Epoch: 11 December)

Date Brightness Start Highest point End Pass type
(mag) Time Alt. Az. Time Alt. Az. Time Alt. Az.
12 Dec 1.2 18:57:56 10° SW 19:01:57 51° SSE 19:03:45 29° E visible
13 Dec 3.3 05:14:16 10° N 05:15:26 11° NNE 05:16:36 10° NE visible
13 Dec 0.8 18:47:24 10° SW 18:51:32 75° SSE 18:54:03 23° ENE visible
14 Dec 3.1 05:02:39 10° N 05:05:04 15° NNE 05:07:29 10° ENE visible
14 Dec 0.8 18:36:59 10° WSW 18:41:06 75° NNW 18:44:21 16° NE visible
15 Dec 2.7 04:52:03 12° NNW 04:54:41 20° NNE 04:57:48 10° ENE visible
15 Dec 1.3 18:26:39 10° WSW 18:30:40 51° NNW 18:34:40 10° NE visible
16 Dec 2.2 04:42:22 19° NNW 04:44:17 28° NNE 04:47:52 10° E visible
16 Dec 1.9 18:16:27 10° W 18:20:15 35° NNW 18:24:03 10° NE visible
17 Dec 1.7 04:32:40 31° N 04:33:52 39° NNE 04:37:46 10° E visible
18 Dec 1.0 04:22:58 52° N 04:23:27 56° NNE 04:27:31 10° ESE visible
19 Dec 0.8 04:13:15 77° E 04:13:15 77° E 04:17:10 10° ESE visible
20 Dec 1.5 04:03:31 49° SSE 04:03:31 49° SSE 04:06:43 10° SE visible
21 Dec 2.4 03:53:44 30° SSE 03:53:44 30° SSE 03:56:09 10° SE visible
